RH
87 94 100 100 98 100 100 99 100 100 93 91 92 92 94 94 90 75 74 55 47 66 65 53 45 58 60 61 72 59 57 61 67 77 73 71 77 68 71 62 83 89 97 92 90 96 91 40 46 55 46 36 34 36
100 100 100 100 100 100 100 100 100 97 85 90 88 86 81 61 58 53 67 66 58 80 78 69 65 61 53 46 61 62 57 64 63 74 76 78 73 76 71 79 50 63 77 80 81 75 42 34 33 32 35 32 35 34
90 91 97 98 100 100 100 100 97 91 88 87 85 84 84 62 45 38 60 60 51 84 73 66 66 58 56 50 45 65 66 60 65 63 78 84 83 74 85 74 56 48 47 51 38 35 36 31 27 24 28 29 29 28
98 100 100 100 100 100 99 96 85 88 85 84 86 86 80 59 51 46 63 64 53 78 87 69 54 53 58 59 46 41 56 63 68 71 92 94 86 70 86 62 64 47 50 51 58 42 34 26 24 25 30 32 34 34
98 98 99 99 100 91 88 89 87 85 84 85 90 91 63 53 50 49 58 73 60 58 83 74 62 59 52 50 60 60 64 77 88 91 95 90 76 75 82 77 81 58 51 51 43 35 39 39 36 39 44 43 41 40
96 95 91 97 88 90 92 89 85 86 88 89 90 93 79 51 45 42 75 62 61 53 84 92 70 62 54 56 58 63 74 88 88 92 93 85 75 70 96 96 62 52 48 48 52 44 45 42 43 48 56 55 52 52
92 84 86 92 96 99 90 87 90 92 91 89 90 94 65 61 53 90 86 89 66 57 85 87 87 66 62 71 78 80 78 88 86 92 98 91 86 82 98 85 52 47 50 49 47 50 63 65 69 57 62 64 66 67
93 97 98 100 100 95 92 94 90 88 86 87 91 92 84 67 67 82 94 72 66 64 79 92 85 80 56 81 82 90 96 95 93 93 93 95 82 91 99 74 66 60 65 70 61 56 58 58 61 63 63 67 74 76
100 99 98 100 97 92 89 87 84 83 84 87 88 60 50 68 84 98 87 64 66 68 97 92 80 85 66 85 89 92 96 99 88 98 97 83 90 96 71 68 73 68 64 64 63 63 65 71 71 71 70 69 74 73
100 99 98 95 92 90 86 83 81 85 90 80 65 69 94 97 90 77 60 84 88 93 95 97 94 88 75 82 88 89 95 98 100 82 89 97 90 67 87 73 73 70 73 72 84 84 73 80 76 73 74 71 70 70
100 100 100 100 97 88 85 82 85 93 71 61 89 91 94 84 71 87 95 93 94 83 91 93 89 92 73 90 93 85 95 95 98 86 95 95 92 92 80 79 77 77 73 76 75 76 81 90 93 91 87 78 76 78
99 98 94 88 84 83 85 92 92 62 61 64 81 86 80 82 90 87 100 91 89 79 92 90 90 93 94 91 93 92 99 97 99 90 97 96 95 82 86 81 80 74 74 77 74 86 92 92 88 93 92 91 90 88
91 87 85 86 88 91 96 78 52 52 60 50 64 84 81 94 76 60 80 86 96 92 93 95 84 95 92 95 97 94 99 95 76 100 94 95 86 79 86 85 75 67 73 77 77 86 94 94 94 96 95 92 96 97
86 88 91 89 86 86 89 88 60 49 38 84 71 69 72 90 85 91 83 84 83 94 98 98 95 91 98 99 98 97 89 96 99 100 96 97 88 83 78 74 75 77 77 81 88 92 93 93 94 94 96 97 98 98
90 92 94 87 86 88 91 70 52 46 60 93 74 53 100 86 97 97 97 96 95 97 95 95 95 95 100 99 98 94 96 98 96 95 94 86 79 83 78 70 74 77 82 86 89 92 92 93 95 94 96 98 100 94
87 82 85 87 86 94 60 59 60 67 78 90 92 90 96 96 97 100 100 97 95 98 95 90 96 100 99 99 98 98 97 97 91 96 79 82 84 80 75 74 76 77 80 88 93 94 94 95 95 96 98 99 99 89
76 81 81 81 99 82 71 66 71 92 94 92 97 94 96 92 96 97 97 96 92 96 97 97 96 83 95 100 98 94 97 92 95 88 86 90 86 84 82 82 74 78 83 90 94 93 94 96 98 97 96 98 100 100
89 94 96 98 85 73 73 92 78 89 97 99 92 97 92 95 99 100 99 99 97 98 97 94 92 99 100 100 96 89 98 97 94 94 87 83 82 83 82 81 79 85 92 93 95 95 97 96 96 96 98 98 98 98
95 96 96 77 66 68 95 95 90 98 97 98 86 92 88 87 95 96 97 96 96 96 96 96 100 99 96 94 94 98 97 99 95 90 86 82 82 84 82 85 90 90 93 94 95 95 96 97 97 98 98 98 97 98
99 95 77 68 64 80 97 98 92 84 94 95 97 99 100 100 98 93 83 93 96 97 96 97 96 95 96 99 96 95 92 93 97 93 84 75 76 82 87 92 89 92 94 94 96 95 97 96 96 97 97 97 96 96
80 83 72 62 77 79 94 97 99 90 84 99 98 100 100 98 98 98 98 98 97 100 100 97 99 97 92 94 87 94 94 96 95 94 92 91 82 90 90 89 91 95 94 94 94 95 95 96 97 97 97 97 97 97
90 85 83 86 88 87 98 96 97 98 100 99 100 100 100 100 100 100 98 98 99 98 97 99 99 100 95 94 90 90 94 98 99 98 90 93 92 89 87 90 95 92 95 96 97 97 96 96 96 96 96 97 97 97
87 83 92 86 86 89 94 86 93 99 95 97 100 95 100 100 99 96 98 98 96 95 96 96 91 92 98 92 90 89 91 97 96 93 93 94 93 95 96 96 97 96 95 95 96 96 97 98 97 97 97 97 97 97
79 86 93 94 96 99 94 99 98 98 97 99 100 92 93 100 98 98 98 97 96 96 96 95 96 91 81 80 90 89 93 98 97 95 94 96 93 89 96 97 96 96 97 96 96 96 96 97 97 96 96 96 96 95
80 78 93 100 99 96 100 100 99 93 94 100 97 93 97 99 99 99 97 97 95 95 94 93 93 93 94 88 84 89 94 98 95 93 90 97 96 96 96 96 96 96 96 95 96 96 97 96 96 96 96 96 95 96
96 92 86 100 100 93 98 93 99 90 99 100 99 98 100 99 97 96 95 96 94 95 93 93 93 91 88 93 93 90 92 97 97 96 94 96 96 96 96 95 95 96 96 95 96 96 96 96 96 96 96 96 95 96
98 99 99 87 92 87 93 92 88 97 100 100 99 100 100 100 97 95 95 95 95 94 97 97 97 96 94 93 96 96 96 96 96 96 96 96 96 96 96 95 95 97 96 95 95 96 97 96 96 96 96 98 98 97
98 99 95 96 97 99 92 100 100 100 100 95 96 99 100 93 93 96 96 94 96 96 95 95 96 96 97 96 96 96 95 96 96 96 95 96 95 96 96 96 97 96 95 95 95 95 95 96 98 100 100 100 100 99
99 95 92 100 100 100 100 97 98 96 93 98 98 97 95 90 95 95 94 96 95 95 96 96 94 95 95 96 95 96 96 95 95 94 95 94 93 96 96 96 96 96 96 95 97 95 89 88 90 89 89 89 90 84
99 98 96 100 98 94 97 99 100 99 98 99 95 97 92 91 96 96 95 93 95 97 96 96 96 96 96 96 96 96 96 96 96 96 95 96 97 98 96 98 100 100 100 100 100 100 100 93 90 84 82 83 82 84
96 99 98 100 99 99 99 100 100 91 99 100 100 100 97 96 97 96 95 96 96 95 95 96 94 96 96 96 96 96 95 95 99 98 96 98 97 95 94 94 95 94 92 89 88 89 85 82 84 86 88 93 96 88
97 100 100 96 100 97 98 100 100 100 100 100 100 100 97 98 99 95 95 94 94 95 96 96 96 95 96 96 96 96 96 93 92 92 88 88 89 89 87 82 78 75 72 71 71 71 71 77 82 84 87 89 88 89
100 100 100 100 100 99 98 98 100 100 100 100 100 100 100 100 98 94 95 97 98 97 97 96 96 96 96 98 100 99 98 100 100 100 97 82 72 69 67 67 65 62 61 64 68 67 69 73 79 82 85 87 89 90
Wind_Speed
9 20 32 43 47 44 41 37 34 30 27 23 19 18 18 20 22 18 5 9 5 3 1 1 2 4 3 2 3 3 2 1 2 3 3 2 3 2 2 2 3 5 6 5 5 5 9 5 4 2 1 4 6 6
37 41 44 45 41 39 37 34 32 30 26 22 19 18 17 17 18 17 6 9 9 5 2 3 5 6 4 3 4 1 2 2 3 2 0 1 2 1 2 3 3 3 3 2 4 2 2 3 2 4 5 4 4 7
35 33 37 37 37 36 34 31 28 26 23 20 18 16 14 14 14 8 13 9 7 3 3 3 3 6 3 4 4 4 0 2 2 2 3 1 1 2 2 4 2 1 2 0 4 2 2 6 5 2 3 3 7 7
35 38 39 36 35 34 31 29 27 24 22 20 18 16 15 14 14 15 10 8 7 5 3 0 3 3 4 2 3 5 9 5 5 2 2 2 2 3 3 2 3 3 2 2 4 6 9 4 2 3 11 9 9 6
41 37 35 35 34 32 31 29 26 24 22 21 18 17 17 16 17 19 18 14 9 4 2 2 1 5 5 4 8 10 10 4 2 2 2 2 2 1 1 1 2 4 5 3 8 7 7 9 13 10 10 13 10 11
39 37 36 35 33 31 29 27 25 23 22 21 19 18 17 16 12 6 3 11 9 5 3 2 3 3 8 6 7 6 5 3 2 3 3 2 3 3 2 2 5 5 5 5 5 7 9 13 10 10 14 16 14 9
38 36 33 34 32 31 29 26 25 23 21 20 19 15 12 9 8 8 3 3 5 4 3 2 2 3 3 3 2 2 2 1 2 2 1 3 2 3 1 7 3 6 6 8 8 6 7 10 11 14 13 21 25 25
34 33 33 33 32 29 28 26 24 22 21 20 20 22 21 20 15 12 11 9 5 9 5 3 1 3 4 1 2 3 2 2 2 1 1 2 0 1 3 6 5 4 5 8 7 7 13 15 18 19 24 21 18 16
38 36 34 31 30 29 27 25 24 23 23 24 20 17 10 8 5 4 5 8 12 6 3 2 3 2 2 1 1 2 2 1 1 1 2 3 2 3 4 3 3 5 4 10 15 16 18 18 19 18 18 18 19 18
37 35 33 29 28 27 25 24 23 23 25 21 7 7 3 3 4 3 3 4 4 4 3 2 0 1 2 2 2 2 1 1 1 3 2 2 3 3 3 4 5 8 10 13 15 19 18 18 18 20 20 18 19 18
30 30 30 28 26 25 23 22 23 23 18 2 4 2 6 5 2 5 3 3 3 4 1 0 2 2 2 2 2 1 1 1 1 3 2 2 2 3 5 6 7 8 14 15 17 18 18 19 19 19 20 21 23 26
31 30 28 25 23 23 22 22 23 9 4 7 16 10 3 4 3 5 1 3 1 2 1 3 2 2 1 2 2 2 1 1 5 1 0 2 1 6 5 8 10 11 14 14 20 16 21 22 25 20 19 19 25 30
29 27 25 24 23 21 18 16 9 16 22 6 5 4 3 3 7 4 1 4 2 1 1 1 1 1 3 3 1 1 1 4 2 1 3 3 3 3 6 7 12 17 16 17 17 22 25 26 30 27 17 28 29 26
26 25 24 23 19 16 18 18 20 8 2 3 4 4 3 4 2 3 4 3 3 2 2 2 1 2 0 2 1 1 3 1 2 1 3 2 3 6 9 9 10 15 14 15 16 21 22 23 22 28 25 24 19 7
24 23 21 19 21 19 15 12 6 4 4 3 3 1 2 3 1 2 2 1 2 1 2 2 2 2 2 2 1 2 5 4 5 3 2 3 7 9 11 13 13 14 13 14 20 17 20 25 21 22 24 21 15 6
22 21 17 17 17 13 10 8 5 3 4 3 4 3 0 3 3 2 0 2 1 2 2 3 2 3 3 3 1 5 3 5 2 2 4 6 9 10 12 13 13 17 18 19 22 23 24 22 20 21 22 14 10 3
14 7 13 14 14 11 7 3 3 4 4 4 2 1 2 2 3 2 3 3 2 3 2 3 2 7 1 1 2 4 4 3 2 6 4 4 8 12 12 14 19 20 20 22 22 23 23 24 22 15 9 12 8 10
21 16 16 14 12 8 4 6 3 3 3 1 1 3 1 2 1 2 2 1 2 2 2 3 3 2 4 4 4 3 2 3 4 4 6 8 12 17 16 15 22 22 22 22 22 23 19 15 11 7 11 12 10 14
20 13 10 8 4 3 4 4 4 2 2 1 1 2 1 1 0 1 1 2 2 2 2 1 2 3 3 3 2 3 3 2 6 9 9 15 17 16 19 21 21 21 20 21 21 15 14 13 11 10 9 10 9 11
16 12 8 4 2 3 4 2 2 2 1 2 2 2 1 1 2 1 2 1 0 1 0 3 4 3 3 2 2 5 6 5 6 9 10 7 15 17 16 17 17 21 19 19 15 14 10 9 12 12 11 11 11 12
9 6 4 4 4 7 4 2 3 2 0 1 1 1 2 2 1 0 1 1 2 2 2 2 2 3 6 11 15 14 13 10 6 6 9 10 16 18 18 18 17 16 13 11 8 8 8 7 8 11 12 15 17 19
4 2 3 5 5 4 4 5 1 1 2 1 2 1 2 1 2 2 1 2 2 3 2 1 2 2 5 5 12 17 18 18 17 16 19 18 8 7 11 16 14 9 11 8 8 6 5 7 11 15 16 17 20 21
4 2 4 4 5 5 2 4 3 4 2 3 2 3 3 2 3 1 1 2 2 2 2 2 8 14 14 20 19 19 16 15 11 12 15 16 17 17 16 15 13 9 5 7 5 8 9 11 14 17 18 19 20 22
3 4 3 3 3 1 2 4 2 3 3 3 3 3 3 2 2 2 2 2 2 2 1 6 10 7 9 10 5 11 14 14 14 15 16 14 10 13 15 12 9 5 2 3 8 11 12 14 16 17 18 20 21 23
4 4 4 3 2 4 4 4 5 3 1 1 2 3 3 2 1 1 2 1 1 2 4 10 10 7 6 7 10 14 17 14 11 7 17 14 14 13 9 2 6 6 4 10 10 12 13 16 18 19 20 23 25 25
3 3 2 2 2 2 3 1 1 2 1 2 3 3 2 2 1 3 1 2 2 2 6 8 8 7 7 10 8 12 18 18 14 10 11 14 12 8 3 2 2 8 8 12 15 16 18 20 21 24 26 28 29 29
2 2 2 2 1 3 1 2 2 2 1 2 2 2 2 1 3 1 1 2 2 11 17 17 15 12 10 17 20 21 21 17 8 3 11 14 13 12 8 5 5 8 14 18 21 22 22 22 23 24 26 27 25 25
1 1 2 2 2 1 3 1 2 3 3 2 2 1 3 3 2 2 1 8 17 19 19 18 16 16 17 17 16 18 16 12 1 1 5 16 19 18 18 19 17 17 20 23 26 27 27 26 27 27 28 27 26 25
2 2 2 2 2 1 2 3 3 1 1 2 3 2 2 2 1 4 5 15 17 15 13 15 18 20 16 13 13 16 15 14 10 8 7 5 7 19 20 20 21 22 23 24 24 26 29 32 33 34 33 34 31 32
2 1 2 1 2 2 2 1 2 2 2 1 2 2 2 2 1 3 10 17 16 14 15 15 15 15 13 13 13 14 21 19 15 9 3 4 6 12 17 21 22 23 25 29 31 29 27 32 31 32 34 33 32 32
1 2 2 1 2 2 2 3 4 3 3 2 2 2 2 2 1 3 10 16 14 14 15 15 17 17 16 16 13 11 10 16 13 12 12 13 13 14 15 18 22 25 27 28 28 28 30 32 31 31 31 30 26 29
2 2 2 1 2 3 4 2 1 1 3 2 2 1 3 2 2 3 10 18 17 15 15 16 16 18 16 14 12 11 8 9 10 10 11 13 15 15 15 16 19 22 26 29 30 30 31 32 31 30 29 27 26 25
2 2 1 1 3 3 3 2 4 4 2 2 2 1 1 1 2 3 9 14 13 12 18 16 13 12 12 12 12 11 11 13 12 11 13 13 14 15 16 19 21 23 25 27 27 28 29 29 29 28 27 26 24 22
Wind_Direction
219 181 160 154 146 141 139 139 138 135 135 135 141 149 161 171 180 189 165 177 155 118 304 55 127 135 112 120 143 157 99 329 79 171 212 219 210 256 314 292 194 174 175 199 207 215 246 333 27 57 287 293 308 342
119 124 129 130 130 132 133 134 136 135 134 133 131 131 140 154 165 169 127 139 134 91 111 67 80 81 89 141 128 76 152 152 162 114 54 102 201 348 159 262 323 248 204 197 203 222 163 79 116 214 219 238 2 4
122 125 129 132 134 133 132 131 132 133 132 132 130 125 129 146 162 170 133 133 103 96 40 62 24 57 96 79 96 121 353 159 81 130 147 137 202 138 207 238 262 280 57 220 20 320 191 320 327 328 82 350 327 316
145 140 134 132 134 136 136 136 136 134 131 129 124 118 117 121 127 139 113 106 96 100 113 267 24 39 26 115 70 94 128 98 98 62 100 128 151 171 230 238 188 223 13 218 262 306 309 280 203 281 294 292 295 266
140 138 139 142 143 142 141 138 136 135 132 128 122 118 118 123 122 112 92 69 72 105 111 138 109 35 38 84 109 111 111 100 92 61 84 206 233 180 238 37 229 198 219 240 272 271 256 278 289 296 285 291 276 271
145 147 147 146 145 142 140 138 136 135 132 129 127 124 121 121 122 94 59 44 49 86 100 112 347 29 33 84 105 95 109 96 113 144 203 233 258 152 178 229 252 228 233 244 264 257 264 273 272 276 290 287 285 268
148 150 150 149 148 144 140 140 139 137 133 128 123 116 110 103 97 68 90 55 44 77 78 53 21 357 11 49 58 73 77 105 129 171 201 197 234 178 169 256 228 229 254 273 266 273 273 271 280 289 277 285 284 276
154 155 154 145 137 139 138 135 134 132 127 123 117 110 103 98 96 62 48 38 55 89 65 101 295 22 15 358 25 4 84 22 343 195 104 199 308 116 262 255 286 284 291 279 275 283 285 290 288 285 286 285 279 271
131 129 134 137 137 135 134 136 134 132 131 128 120 107 88 44 49 56 82 45 56 73 113 86 127 210 10 327 114 32 77 40 219 210 238 156 182 222 238 262 299 282 284 303 305 297 291 284 279 278 277 274 269 271
132 131 133 136 137 138 139 139 138 137 132 133 95 57 49 45 99 72 25 22 17 342 38 95 44 74 89 16 347 47 18 225 258 236 146 214 241 257 38 320 318 318 300 301 299 296 298 295 293 289 283 278 273 270
134 136 136 137 137 137 140 141 143 140 140 78 71 70 107 112 76 31 40 67 327 12 360 131 108 106 2 96 233 88 222 253 317 255 233 217 180 263 265 273 273 277 282 281 278 282 283 282 284 284 282 275 272 267
131 132 131 132 136 140 142 139 141 140 123 121 117 118 107 37 40 81 353 328 75 196 316 130 238 165 341 40 83 327 234 81 246 196 59 255 129 239 256 274 283 287 287 284 284 286 286 285 284 281 280 276 271 266
127 128 132 134 132 132 134 142 144 132 125 104 66 61 58 318 44 98 203 313 0 259 259 40 1 111 15 43 79 230 329 236 333 277 232 194 217 268 264 289 299 302 295 295 299 299 295 290 291 286 286 286 282 271
126 129 129 127 128 128 128 128 133 130 104 73 93 33 102 330 256 183 177 184 235 140 141 105 55 87 168 51 138 223 245 32 302 292 239 230 260 305 305 293 300 307 310 308 304 302 300 300 298 301 298 298 299 286
123 125 125 123 125 124 123 132 129 78 69 81 69 145 202 222 214 238 217 321 246 152 100 58 39 75 5 55 199 1 341 257 214 229 241 288 305 301 306 315 314 313 312 310 305 306 305 304 307 306 310 309 304 269
115 114 119 131 134 127 122 116 78 65 60 81 58 78 190 55 315 350 123 260 213 123 91 55 100 49 278 169 116 226 161 233 245 222 298 300 297 303 310 315 311 309 310 307 305 305 308 310 311 310 315 321 325 258
107 107 130 130 130 136 126 70 54 49 109 51 331 29 129 109 187 224 167 235 158 84 170 122 113 227 57 341 269 198 212 232 242 300 286 274 293 305 309 306 310 312 310 307 308 310 308 311 315 322 339 353 54 88
112 124 125 132 134 122 54 43 68 75 67 279 114 263 222 158 160 289 250 267 106 130 123 212 128 151 207 199 249 247 284 270 257 264 297 302 304 301 302 307 309 310 306 307 310 306 309 316 323 331 347 12 52 68
121 117 121 130 116 88 75 35 35 111 204 227 16 22 336 330 253 255 264 283 216 167 130 120 184 208 233 218 251 285 284 269 306 305 299 296 286 291 301 302 303 307 309 311 309 313 318 329 336 348 16 44 54 59
102 88 93 92 73 82 59 13 20 89 143 234 31 0 244 232 297 275 292 287 205 67 341 218 215 215 202 240 242 280 288 292 298 302 302 304 312 304 302 308 306 305 308 308 313 329 334 350 10 26 55 65 69 63
87 48 65 75 58 56 90 32 48 53 43 85 312 45 288 354 301 203 284 331 78 206 241 224 237 249 273 279 286 278 278 276 272 266 289 300 305 308 306 305 306 305 306 313 322 332 1 2 20 55 68 75 83 86
89 49 73 37 69 51 76 26 87 12 81 218 36 30 36 13 317 293 264 62 230 244 217 227 262 289 306 290 296 295 289 288 280 276 288 295 299 305 305 306 306 307 311 328 335 351 28 69 82 82 83 85 89 90
120 45 59 33 62 41 274 1 60 360 71 304 17 29 339 333 236 326 290 220 250 240 252 285 297 304 283 295 304 304 308 298 290 292 294 294 294 294 295 297 299 302 315 352 36 58 56 76 83 84 88 88 91 89
71 54 64 63 60 221 4 14 21 27 33 30 44 331 315 248 307 51 254 259 263 287 271 298 314 311 310 301 298 301 301 302 294 292 294 295 299 302 303 297 324 337 358 101 95 86 85 88 93 91 92 93 92 91
69 339 75 351 342 57 35 4 346 39 329 336 33 322 301 347 349 298 244 292 312 321 327 323 314 304 297 296 297 303 307 298 295 301 305 307 304 305 308 358 31 41 125 111 94 94 92 93 93 95 97 97 96 93
73 309 80 175 296 99 187 60 251 231 140 342 240 272 356 48 8 261 323 340 327 317 325 320 314 312 307 299 299 305 308 312 306 295 309 336 333 319 337 19 24 30 95 120 114 109 105 105 103 101 98 98 99 95
53 290 309 265 118 123 66 35 45 102 120 209 263 12 56 21 267 283 13 35 318 317 316 312 304 297 295 304 307 310 317 320 287 325 19 29 38 48 58 68 51 63 112 117 107 103 99 98 97 96 94 89 91 98
141 132 153 264 57 17 144 70 147 208 236 227 94 12 172 209 272 347 323 336 334 332 334 340 339 325 311 313 326 335 349 15 122 229 32 49 58 62 76 84 91 105 114 117 112 110 105 102 99 98 96 94 95 102
58 351 93 13 0 25 199 180 216 245 339 128 150 256 252 250 339 340 332 341 344 347 334 338 342 357 6 21 27 23 33 42 43 55 49 38 35 33 61 79 93 101 107 106 109 116 118 118 115 113 111 111 113 117
328 346 94 74 129 247 251 174 247 277 274 239 273 310 281 285 347 353 356 358 351 341 344 344 347 355 348 353 352 23 42 46 48 49 54 51 44 73 86 91 94 98 102 104 105 105 106 109 110 110 110 110 111 111
12 55 60 80 228 251 242 312 296 263 3 335 322 189 268 295 341 2 3 0 357 4 5 356 2 11 3 3 1 358 14 34 50 65 82 92 96 99 103 109 115 118 119 117 115 113 114 110 109 109 109 107 107 111
12 87 124 319 295 297 21 46 2 36 333 11 306 318 323 352 309 356 2 0 4 4 1 359 354 350 9 21 34 36 43 50 61 74 87 96 100 105 112 117 122 123 123 121 121 122 120 118 116 115 115 115 115 114
32 36 28 22 359 360 332 48 21 346 8 357 302 312 270 321 273 323 357 359 358 347 348 350 2 15 27 39 45 52 61 68 69 76 84 91 100 109 115 119 121 122 121 119 119 120 120 120 119 120 119 118 117 117